TimeEDT,TemperatureF,Dew PointF,Humidity,Sea Level PressureIn,VisibilityMPH,Wind Direction,Wind SpeedMPH,Gust SpeedMPH,PrecipitationIn,Events,Conditions,WindDirDegrees,DateUTC
12:53 AM,84.0,75.9,76,30.06,10.0,South,8.1,-,N/A,,Clear,190,2013-08-03 04:53:00
1:53 AM,84.0,75.9,76,30.05,10.0,South,9.2,-,N/A,,Partly Cloudy,190,2013-08-03 05:53:00
2:53 AM,82.9,75.9,79,30.04,10.0,SSW,10.4,-,N/A,,Partly Cloudy,200,2013-08-03 06:53:00
3:53 AM,82.9,75.9,79,30.04,10.0,SSW,6.9,-,N/A,,Partly Cloudy,200,2013-08-03 07:53:00
4:53 AM,82.0,75.9,82,30.04,10.0,WSW,4.6,-,N/A,,Partly Cloudy,240,2013-08-03 08:53:00
5:53 AM,82.0,75.9,82,30.04,10.0,SW,4.6,-,N/A,,Partly Cloudy,220,2013-08-03 09:53:00
6:04 AM,82.4,75.2,79,30.05,10.0,SW,3.5,-,N/A,,Partly Cloudy,220,2013-08-03 10:04:00
6:53 AM,82.0,75.9,82,30.05,10.0,SSW,5.8,-,N/A,,Partly Cloudy,200,2013-08-03 10:53:00
7:53 AM,82.9,75.9,79,30.07,10.0,South,4.6,-,N/A,,Scattered Clouds,170,2013-08-03 11:53:00
8:53 AM,84.0,75.9,76,30.09,10.0,South,5.8,-,N/A,,Scattered Clouds,170,2013-08-03 12:53:00
9:53 AM,87.1,77.0,72,30.10,10.0,SSE,6.9,-,N/A,,Scattered Clouds,150,2013-08-03 13:53:00
10:53 AM,88.0,77.0,70,30.12,10.0,Variable,6.9,-,N/A,,Mostly Cloudy,0,2013-08-03 14:53:00
11:53 AM,88.0,77.0,70,30.12,10.0,SSE,10.4,-,N/A,,Mostly Cloudy,150,2013-08-03 15:53:00
12:53 PM,88.0,77.0,70,30.12,10.0,South,8.1,-,N/A,,Mostly Cloudy,170,2013-08-03 16:53:00
1:53 PM,88.0,75.9,67,30.11,10.0,South,8.1,-,N/A,,Mostly Cloudy,190,2013-08-03 17:53:00
2:53 PM,88.0,75.0,65,30.09,10.0,SSW,6.9,-,N/A,,Mostly Cloudy,200,2013-08-03 18:53:00
3:53 PM,89.1,75.9,65,30.09,10.0,South,6.9,-,N/A,,Mostly Cloudy,170,2013-08-03 19:53:00
4:53 PM,88.0,75.0,65,30.09,10.0,South,6.9,-,N/A,,Mostly Cloudy,190,2013-08-03 20:53:00
5:53 PM,87.1,75.0,67,30.08,10.0,SE,3.5,-,N/A,,Mostly Cloudy,140,2013-08-03 21:53:00
6:53 PM,86.0,75.0,70,30.08,10.0,Calm,Calm,-,N/A,,Mostly Cloudy,0,2013-08-03 22:53:00
7:53 PM,86.0,73.9,67,30.09,10.0,Calm,Calm,-,N/A,,Mostly Cloudy,0,2013-08-03 23:53:00
8:53 PM,84.9,75.0,72,30.10,10.0,Calm,Calm,-,N/A,,Mostly Cloudy,0,2013-08-04 00:53:00
9:53 PM,84.9,75.9,74,30.12,10.0,Calm,Calm,-,N/A,,Mostly Cloudy,0,2013-08-04 01:53:00
10:53 PM,84.0,75.9,76,30.12,10.0,NE,4.6,-,N/A,,Clear,40,2013-08-04 02:53:00
11:53 PM,82.0,75.9,82,30.12,10.0,East,4.6,-,N/A,,Partly Cloudy,100,2013-08-04 03:53:00